Showing default

COSMOS 627, 7008

Orbit data source: Space-Track

COSMOS 627, 7008 is a payload satellite owned by VMF (CIS) in LEO that was launched on Sat, 29 Dec 1973 UTC via a KOSMOS 11K65M launch vehicle from the Plesetsk Missile And Space Complex (PKMTR). Payload-class satellites include a variety of spacecraft equipped with specific instruments for various scientific and technological missions. These include communications satellites like Starlink; space stations such as the ISS; scientific satellites like the Hubble; Earth observation satellites from companies like Planet Labs, Umbra, and HawkEye 360; GPS; miniature CubeSats for education and research; and military/defense satellites.

Loading next visibility...
Identifier
7008, 1973-109A
Orbit
LEO
Country
Flag of CISCIS
Related business
Manufacturer
Omsk Av. Zav.
Mission
Defense Navigation
Bus & Motor
KAUR-1 11F617, Unknown motor
Mass
800 kg wet, 800 kg dry
Launch date (UTC)
1973-12-29 (52 years ago)
Launch vehicle
KOSMOS 11K65M
Launch site
Plesetsk Missile And Space Complex (PKMTR)
Object type
Payload
Rocket body
Debris
Shape & HBR
Cyl, 2.5 m
Radar Cross Section
9.978 m², Large (>1 m²)

Expand to show TLE details & history
Last TLE update: 12 hours ago

TLE from 12 hours ago
0 COSMOS 627
1 07008U 73109A   25260.70739391  .00000039  00000-0  25655-4 0  9998
2 07008  82.9555 322.5612 0032359  17.0061 101.7099 13.73051258590498
Epoch: 2025-09-17T16:58Z
TLE epoch observation values (Epoch: 2025-09-17T16:58:38.833Z)
Latitude
60.24555°
Longitude
-121.39849°
Altitude
1,003.807 km
Speed
7.353 km/s
True Right ascension
08h 40m 34s
True Declination
60° 06' 08"
Sunlit
Object was in daylight at epoch
Visualization orbit readout
Latitude
Unknown
Longitude
Unknown
Altitude
Unknown
Speed
Unknown
Apparent Right ascension
Unknown
Apparent Declination
Unknown
Sunlit
N/A
Visualization observer readout
Local Sidereal Time
22:16:02
Azimuth
Unknown
Elevation
Unknown
Doppler factor
Unknown
Orbital elements
Apogee altitude
1,009.617 km
Perigee altitude
961.959 km
Semi-major axis
7,363.925 km
Eccentricity
0.00324
Inclination
82.9555°
RAAN
322.5612°
Arg. of periapsis
17.0061°
True anomaly
102.07269°
Mean anomaly
101.7099°
Eccentric anomaly
101.89132°
Mean motion
3.43462 °/min
Orbital period
104.81 mins
BSTAR
0.000025655
Loading maneuver chart data...
Computing Atmospheric mass density...
Loading historical data...
Loading historical data...
Loading historical data...
Loading historical data...
Loading historical data...
Loading historical data...
Loading historical data...
Other satellites on launch #109 in the year 1973 (1973-12-29 UTC)

Documentation

Showing up to 5 results
|